FW6147 Weather Reports


time (UTC)temp
C
wind
direction
speed
KPH
gust
KPH
rain 1hr
cm
rain 24hr
cm
rain mn
cm
humidity
%
barometer
mb
20200531074057 18 0 0.0 1.6 0.00 0.00 0.00 42 1018.6
20200531073556 18 0 0.0 3.2 0.00 0.00 0.00 41 1018.5
20200531073123 19 0 0.0 3.2 0.00 0.00 0.00 40 1018.6
20200531072600 20 0 0.0 3.2 0.00 0.00 0.00 39 1018.5
20200531072055 20 0 0.0 3.2 0.00 0.00 0.00 39 1018.5
20200531071830 20 0 0.0 3.2 0.00 0.00 0.00 38 1018.5
20200531071056 20 0 0.0 3.2 0.00 0.00 0.00 38 1018.5
20200531070600 20 0 0.0 4.8 0.00 0.00 0.00 38 1018.5
20200531070113 20 0 0.0 4.8 0.00 0.00 0.00 39 1018.5
20200531065556 20 295 0.0 3.2 0.00 0.00 0.00 39 1018.5
20200531065057 20 0 0.0 4.8 0.00 0.00 0.00 39 1018.4
20200531064639 20 296 1.6 4.8 0.00 0.00 0.00 39 1018.4
20200531064057 20 0 0.0 3.2 0.00 0.00 0.00 38 1018.6
20200531063556 20 0 0.0 4.8 0.00 0.00 0.00 37 1018.6
20200531063055 21 0 0.0 4.8 0.00 0.00 0.00 36 1018.6
20200531062557 22 0 0.0 0.0 0.00 0.00 0.00 34 1018.6
20200531062059 22 0 0.0 0.0 0.00 0.00 0.00 34 1018.7
20200531061714 22 0 0.0 4.8 0.00 0.00 0.00 33 1018.6
20200531061054 23 0 0.0 4.8 0.00 0.00 0.00 33 1018.6
20200531060556 23 0 0.0 4.8 0.00 0.00 0.00 33 1018.7
20200531060124 23 308 1.6 6.4 0.00 0.00 0.00 33 1018.7
20200531055606 23 307 1.6 6.4 0.00 0.00 0.00 33 1018.6
20200531055100 23 360 3.2 6.4 0.00 0.00 0.00 37 1018.7
20200531054644 23 315 1.6 6.4 0.00 0.00 0.00 36 1018.6
20200531054055 23 313 1.6 6.4 0.00 0.00 0.00 36 1018.6
20200531053554 23 310 1.6 6.4 0.00 0.00 0.00 35 1018.6
20200531053240 23 308 1.6 4.8 0.00 0.00 0.00 35 1018.6
20200531052603 24 0 1.6 4.8 0.00 0.00 0.00 32 1018.5
20200531052107 24 294 0.0 3.2 0.00 0.00 0.00 32 1018.5
20200531051726 25 0 0.0 3.2 0.00 0.00 0.00 31 1018.4
20200531051109 25 0 1.6 4.8 0.00 0.00 0.00 31 1018.4
20200531050556 26 292 0.0 4.8 0.00 0.00 0.00 30 1018.4
20200531050222 26 292 1.6 8.0 0.00 0.00 0.00 28 1018.4
20200531045555 26 289 3.2 9.7 0.00 0.00 0.00 28 1018.2
20200531045055 26 275 3.2 12.9 0.00 0.00 0.00 27 1018.1
20200531044747 26 276 8.0 12.9 0.00 0.00 0.00 27 1018.0
20200531044055 26 253 4.8 9.7 0.00 0.00 0.00 27 1017.8
20200531043602 26 360 3.2 14.5 0.00 0.00 0.00 27 1017.7
20200531043155 27 360 6.4 19.3 0.00 0.00 0.00 26 1017.7
20200531042555 27 252 11.3 19.3 0.00 0.00 0.00 26 1017.6
20200531042116 27 360 4.8 17.7 0.00 0.00 0.00 25 1017.5
20200531041756 27 264 9.7 17.7 0.00 0.00 0.00 24 1017.5
20200531041054 27 245 0.0 6.4 0.00 0.00 0.00 24 1017.4
20200531040557 27 264 1.6 8.0 0.00 0.00 0.00 24 1017.3
20200531040230 27 252 1.6 11.3 0.00 0.00 0.00 23 1017.2
20200531035554 27 250 6.4 12.9 0.00 0.00 0.00 23 1017.2
20200531035113 28 232 6.4 14.5 0.00 0.00 0.00 22 1017.1
20200531034717 28 243 8.0 17.7 0.00 0.00 0.00 22 1017.1
20200531034108 28 360 8.0 17.7 0.00 0.00 0.00 22 1017.0
20200531033557 28 360 9.7 16.1 0.00 0.00 0.00 21 1017.1
20200531033140 28 220 8.0 14.5 0.00 0.00 0.00 21 1017.2
20200531032558 28 220 3.2 14.5 0.00 0.00 0.00 21 1017.2
20200531032057 29 233 4.8 14.5 0.00 0.00 0.00 20 1017.3
20200531031823 29 360 8.0 11.3 0.00 0.00 0.00 20 1017.2
20200531031057 29 264 3.2 9.7 0.00 0.00 0.00 20 1017.2
20200531030554 29 360 3.2 14.5 0.00 0.00 0.00 20 1017.1
20200531030149 29 236 8.0 16.1 0.00 0.00 0.00 19 1017.0
20200531025555 29 360 9.7 16.1 0.00 0.00 0.00 19 1016.8
20200531025104 29 263 8.0 16.1 0.00 0.00 0.00 20 1016.7
20200531024624 28 264 6.4 14.5 0.00 0.00 0.00 21 1016.5
20200531024104 28 243 8.0 16.1 0.00 0.00 0.00 21 1016.5
20200531023555 28 360 9.7 16.1 0.00 0.00 0.00 21 1016.4
20200531023332 28 360 9.7 12.9 0.00 0.00 0.00 21 1016.5
20200531022554 29 360 4.8 9.7 0.00 0.00 0.00 21 1016.5
20200531022054 29 360 4.8 11.3 0.00 0.00 0.00 20 1016.5
20200531021631 29 360 6.4 12.9 0.00 0.00 0.00 20 1016.4
20200531021113 29 360 4.8 17.7 0.00 0.00 0.00 20 1016.4
20200531020557 30 360 8.0 17.7 0.00 0.00 0.00 20 1016.3
20200531020140 30 360 9.7 19.3 0.00 0.00 0.00 20 1016.4
20200531015556 30 360 14.5 19.3 0.00 0.00 0.00 20 1016.2
20200531015102 30 259 11.3 29.0 0.00 0.00 0.00 19 1016.2
20200531014758 30 250 16.1 29.0 0.00 0.00 0.00 19 1016.1
20200531014056 30 257 14.5 25.7 0.00 0.00 0.00 19 1016.0
20200531013557 30 360 11.3 25.7 0.00 0.00 0.00 18 1016.1
20200531013127 31 360 14.5 20.9 0.00 0.00 0.00 18 1016.1
20200531012555 31 360 9.7 20.9 0.00 0.00 0.00 18 1016.0
20200531012056 31 360 6.4 12.9 0.00 0.00 0.00 18 1015.9
20200531011650 31 360 6.4 12.9 0.00 0.00 0.00 18 1015.9
20200531011055 32 248 3.2 14.5 0.00 0.00 0.00 17 1015.9
20200531010557 32 360 4.8 16.1 0.00 0.00 0.00 17 1015.8
20200531010203 32 237 4.8 16.1 0.00 0.00 0.00 16 1015.8
20200531005600 33 0 0.0 1.6 0.00 0.00 0.00 13 1015.7
20200531005104 33 0 0.0 4.8 0.00 0.00 0.00 13 1015.5
20200531004630 33 0 0.0 16.1 0.00 0.00 0.00 13 1015.5
20200531004054 33 0 6.4 16.1 0.00 0.00 0.00 13 1015.4
20200531003559 33 104 9.7 14.5 0.00 0.00 0.00 12 1015.5
20200531003136 33 0 0.0 11.3 0.00 0.00 0.00 12 1015.5
20200531002555 33 0 3.2 11.3 0.00 0.00 0.00 12 1015.6
20200531002100 33 0 0.0 9.7 0.00 0.00 0.00 12 1015.6
20200531001626 33 360 3.2 8.0 0.00 0.00 0.00 12 1015.7
20200531001056 33 86 0.0 9.7 0.00 0.00 0.00 12 1015.7
20200531000603 33 0 1.6 9.7 0.00 0.00 0.00 12 1015.7
20200531000128 33 110 1.6 11.3 0.00 0.00 0.00 12 1015.8
20200530235556 33 0 0.0 11.3 0.00 0.00 0.00 12 1015.9
20200530235108 34 0 4.8 11.3 0.00 0.00 0.00 12 1016.0
20200530234642 34 0 0.0 9.7 0.00 0.00 0.00 12 1016.0
20200530234054 34 121 3.2 9.7 0.00 0.00 0.00 12 1016.1
20200530233556 34 129 0.0 16.1 0.00 0.00 0.00 12 1016.0
20200530233128 34 132 3.2 16.1 0.00 0.00 0.00 11 1016.0
20200530232556 35 120 6.4 12.9 0.00 0.00 0.00 11 1016.1
20200530232054 35 0 3.2 22.5 0.00 0.00 0.00 11 1016.2
20200530231905 35 106 11.3 22.5 0.00 0.00 0.00 11 1016.2
20200530231103 35 122 3.2 12.9 0.00 0.00 0.00 11 1016.2
20200530230600 35 122 3.2 16.1 0.00 0.00 0.00 11 1016.3
20200530230140 35 122 8.0 16.1 0.00 0.00 0.00 11 1016.2
20200530225556 35 126 4.8 24.1 0.00 0.00 0.00 11 1016.2
20200530225058 35 91 11.3 24.1 0.00 0.00 0.00 11 1016.3
20200530224624 35 108 6.4 16.1 0.00 0.00 0.00 11 1016.3
20200530224056 35 72 8.0 19.3 0.00 0.00 0.00 11 1016.3
20200530223603 35 96 9.7 19.3 0.00 0.00 0.00 11 1016.3
20200530223249 35 87 1.6 11.3 0.00 0.00 0.00 11 1016.3
20200530222558 35 98 0.0 11.3 0.00 0.00 0.00 12 1016.3
20200530222055 35 0 1.6 16.1 0.00 0.00 0.00 12 1016.3
20200530221718 35 0 1.6 16.1 0.00 0.00 0.00 12 1016.3
20200530221054 35 0 0.0 20.9 0.00 0.00 0.00 11 1016.6
20200530220554 36 104 4.8 20.9 0.00 0.00 0.00 11 1016.6
20200530220140 36 136 3.2 16.1 0.00 0.00 0.00 11 1016.6
20200530215554 36 74 3.2 14.5 0.00 0.00 0.00 11 1016.7
20200530215054 36 103 0.0 6.4 0.00 0.00 0.00 11 1016.8
20200530214623 35 0 0.0 9.7 0.00 0.00 0.00 12 1016.8
20200530214057 35 0 4.8 14.5 0.00 0.00 0.00 11 1017.0
20200530213601 35 89 3.2 24.1 0.00 0.00 0.00 11 1017.1
20200530213137 36 0 4.8 24.1 0.00 0.00 0.00 11 1017.2
20200530212556 36 108 6.4 29.0 0.00 0.00 0.00 11 1017.3
20200530212057 35 0 8.0 29.0 0.00 0.00 0.00 12 1017.3
20200530211736 36 96 4.8 16.1 0.00 0.00 0.00 11 1017.4
20200530211103 36 137 0.0 11.3 0.00 0.00 0.00 11 1017.6
20200530210555 36 0 0.0 11.3 0.00 0.00 0.00 12 1017.8
20200530210217 36 0 0.0 12.9 0.00 0.00 0.00 11 1017.9
20200530205600 36 0 0.0 14.5 0.00 0.00 0.00 12 1018.0
20200530205054 36 96 8.0 20.9 0.00 0.00 0.00 11 1018.0
20200530204743 36 111 8.0 20.9 0.00 0.00 0.00 11 1018.2
20200530204054 35 103 3.2 16.1 0.00 0.00 0.00 11 1018.1
20200530203554 35 0 3.2 17.7 0.00 0.00 0.00 11 1018.4
20200530203121 35 105 6.4 19.3 0.00 0.00 0.00 12 1018.4
20200530202557 35 99 3.2 20.9 0.00 0.00 0.00 13 1018.5
20200530202057 35 77 14.5 22.5 0.00 0.00 0.00 12 1018.5
20200530201626 35 81 11.3 30.6 0.00 0.00 0.00 13 1018.5
20200530201057 35 0 14.5 30.6 0.00 0.00 0.00 13 1018.6
20200530200553 36 109 11.3 20.9 0.00 0.00 0.00 12 1018.7
20200530200219 35 94 4.8 19.3 0.00 0.00 0.00 13 1018.7
20200530195555 35 101 8.0 22.5 0.00 0.00 0.00 12 1018.8
20200530195056 36 0 1.6 25.7 0.00 0.00 0.00 12 1018.8
20200530194628 36 112 6.4 25.7 0.00 0.00 0.00 12 1019.0
20200530194058 35 76 3.2 16.1 0.00 0.00 0.00 13 1018.8
20200530193556 35 0 1.6 17.7 0.00 0.00 0.00 12 1019.1
20200530193148 35 0 1.6 17.7 0.00 0.00 0.00 13 1019.0
20200530192556 35 0 1.6 29.0 0.00 0.00 0.00 13 1019.1
20200530192053 35 63 6.4 29.0 0.00 0.00 0.00 12 1019.2
20200530191637 35 101 6.4 17.7 0.00 0.00 0.00 13 1019.2
20200530191056 35 0 1.6 19.3 0.00 0.00 0.00 13 1019.2
20200530190603 35 0 6.4 22.5 0.00 0.00 0.00 14 1019.5
20200530190211 35 103 12.9 22.5 0.00 0.00 0.00 13 1019.5
20200530185556 35 66 11.3 24.1 0.00 0.00 0.00 13 1019.6
20200530185058 35 84 11.3 24.1 0.00 0.00 0.00 13 1019.7
20200530184652 35 102 4.8 24.1 0.00 0.00 0.00 14 1019.8
20200530184054 35 89 16.1 24.1 0.00 0.00 0.00 13 1019.8
20200530183554 35 87 4.8 24.1 0.00 0.00 0.00 14 1019.7
20200530183126 35 75 9.7 24.1 0.00 0.00 0.00 13 1019.7
20200530182554 35 0 8.0 22.5 0.00 0.00 0.00 14 1019.8
20200530182058 35 96 8.0 20.9 0.00 0.00 0.00 14 1019.9
20200530181615 35 98 4.8 27.4 0.00 0.00 0.00 14 1019.9
20200530181053 35 63 12.9 27.4 0.00 0.00 0.00 13 1020.0
20200530180557 35 100 11.3 25.7 0.00 0.00 0.00 14 1020.1
20200530180214 34 77 11.3 25.7 0.00 0.00 0.00 15 1020.1
20200530175554 34 107 9.7 24.1 0.00 0.00 0.00 14 1020.1
20200530175054 34 83 12.9 22.5 0.00 0.00 0.00 14 1020.1
20200530174636 34 63 14.5 22.5 0.00 0.00 0.00 14 1020.2
20200530174056 33 88 4.8 22.5 0.00 0.00 0.00 15 1020.2
20200530173556 33 87 4.8 20.9 0.00 0.00 0.00 14 1020.3
20200530173136 33 83 12.9 25.7 0.00 0.00 0.00 15 1020.4
20200530172557 33 81 12.9 25.7 0.00 0.00 0.00 15 1020.6
20200530172059 33 94 6.4 17.7 0.00 0.00 0.00 18 1020.6
20200530171649 33 61 3.2 16.1 0.00 0.00 0.00 17 1020.5
20200530171059 32 0 1.6 11.3 0.00 0.00 0.00 19 1020.5
20200530170553 32 61 3.2 11.3 0.00 0.00 0.00 19 1020.6
20200530170110 32 0 0.0 11.3 0.00 0.00 0.00 18 1020.5
20200530165554 31 40 0.0 6.4 0.00 0.00 0.00 20 1020.5
20200530165054 31 0 0.0 6.4 0.00 0.00 0.00 22 1020.5
20200530164656 31 323 0.0 3.2 0.00 0.00 0.00 24 1020.4
20200530164058 31 0 0.0 3.2 0.00 0.00 0.00 25 1020.6
20200530163600 30 0 0.0 3.2 0.00 0.00 0.00 23 1020.6
20200530163134 30 0 0.0 3.2 0.00 0.00 0.00 25 1020.6
20200530162553 30 321 0.0 1.6 0.00 0.00 0.00 26 1020.6
20200530162053 29 0 0.0 0.0 0.00 0.00 0.00 26 1020.6
20200530161627 29 0 0.0 0.0 0.00 0.00 0.00 25 1020.6
20200530161056 29 0 0.0 0.0 0.00 0.00 0.00 26 1020.6
20200530160614 28 0 0.0 0.0 0.00 0.00 0.00 28 1020.8
20200530160130 28 0 0.0 1.6 0.00 0.00 0.00 28 1020.8
20200530155559 28 0 0.0 1.6 0.00 0.00 0.00 28 1020.7
20200530155057 27 0 0.0 0.0 0.00 0.00 0.00 29 1020.9
20200530154635 27 0 0.0 0.0 0.00 0.00 0.00 29 1020.9
20200530154055 27 0 0.0 0.0 0.00 0.00 0.00 30 1020.9
20200530153556 27 0 0.0 0.0 0.00 0.00 0.00 34 1020.8
20200530153207 27 0 0.0 0.0 0.00 0.00 0.00 34 1021.0
20200530152555 26 0 0.0 0.0 0.00 0.00 0.00 34 1021.0
20200530152056 26 0 0.0 0.0 0.00 0.00 0.00 34 1020.9
20200530151705 26 0 0.0 0.0 0.00 0.00 0.00 36 1021.0
20200530151058 26 0 0.0 0.0 0.00 0.00 0.00 38 1020.9
20200530150554 25 0 0.0 0.0 0.00 0.00 0.00 37 1020.9
20200530150147 25 0 0.0 0.0 0.00 0.00 0.00 38 1020.9
20200530145554 25 0 0.0 0.0 0.00 0.00 0.00 39 1020.9
20200530145112 25 0 0.0 0.0 0.00 0.00 0.00 40 1020.9
20200530144610 24 0 0.0 0.0 0.00 0.00 0.00 40 1020.8
20200530144056 24 0 0.0 0.0 0.00 0.00 0.00 41 1020.8
20200530143554 23 0 0.0 0.0 0.00 0.00 0.00 43 1020.8
20200530143053 23 0 0.0 0.0 0.00 0.00 0.00 44 1020.8
20200530142554 23 0 0.0 0.0 0.00 0.00 0.00 46 1020.7
20200530142057 22 0 0.0 0.0 0.00 0.00 0.00 47 1020.7
20200530141618 22 0 0.0 0.0 0.00 0.00 0.00 47 1020.7
20200530141054 22 0 0.0 0.0 0.00 0.00 0.00 47 1020.6
20200530140553 22 0 0.0 0.0 0.00 0.00 0.00 48 1020.5
20200530140140 21 0 0.0 0.0 0.00 0.00 0.00 49 1020.5
20200530135553 21 0 0.0 0.0 0.00 0.00 0.00 49 1020.6
20200530135121 21 0 0.0 0.0 0.00 0.00 0.00 50 1020.6
20200530134618 21 0 0.0 1.6 0.00 0.00 0.00 49 1020.6
20200530134056 21 0 0.0 1.6 0.00 0.00 0.00 48 1020.6
20200530133606 21 0 0.0 0.0 0.00 0.00 0.00 54 1020.5
20200530133147 20 0 0.0 0.0 0.00 0.00 0.00 52 1020.5
20200530132609 20 0 0.0 0.0 0.00 0.00 0.00 48 1020.6
20200530132059 19 0 0.0 0.0 0.00 0.00 0.00 50 1020.5
20200530131702 18 0 0.0 0.0 0.00 0.00 0.00 52 1020.4
20200530131056 18 0 0.0 0.0 0.00 0.00 0.00 53 1020.4
20200530130557 17 0 0.0 0.0 0.00 0.00 0.00 53 1020.4
20200530130140 17 0 0.0 0.0 0.00 0.00 0.00 54 1020.4
20200530125628 17 0 0.0 0.0 0.00 0.00 0.00 54 1020.4
20200530125052 16 0 0.0 0.0 0.00 0.00 0.00 55 1020.3
20200530124656 16 0 0.0 0.0 0.00 0.00 0.00 57 1020.3
20200530124055 15 0 0.0 0.0 0.00 0.00 0.00 58 1020.3
20200530123553 15 0 0.0 0.0 0.00 0.00 0.00 59 1020.3
20200530123117 15 0 0.0 3.2 0.00 0.00 0.00 59 1020.3
20200530122553 15 0 0.0 3.2 0.00 0.00 0.00 59 1020.3
20200530122058 15 0 0.0 1.6 0.00 0.00 0.00 58 1020.2
20200530121716 15 0 0.0 3.2 0.00 0.00 0.00 57 1020.1
20200530121053 16 0 0.0 3.2 0.00 0.00 0.00 56 1020.0
20200530120556 15 295 0.0 1.6 0.00 0.00 0.00 57 1019.9
20200530120236 16 0 0.0 1.6 0.00 0.00 0.00 57 1019.9
20200530115608 15 0 0.0 0.0 0.00 0.00 0.00 58 1019.9
20200530115055 15 0 0.0 3.2 0.00 0.00 0.00 59 1019.8
20200530114628 15 0 0.0 3.2 0.00 0.00 0.00 58 1019.9
20200530114108 15 0 0.0 3.2 0.00 0.00 0.00 58 1019.9
20200530113617 15 295 0.0 1.6 0.00 0.00 0.00 58 1019.8
20200530113149 15 0 0.0 1.6 0.00 0.00 0.00 58 1019.8
20200530112556 15 0 0.0 1.6 0.00 0.00 0.00 57 1019.9
20200530112059 15 0 0.0 0.0 0.00 0.00 0.00 57 1019.9
20200530111714 15 0 0.0 3.2 0.00 0.00 0.00 57 1020.0
20200530111057 15 0 0.0 3.2 0.00 0.00 0.00 57 1019.9
20200530110604 15 0 0.0 0.0 0.00 0.00 0.00 58 1020.1
20200530110125 15 0 0.0 0.0 0.00 0.00 0.00 58 1020.0
20200530105600 15 0 0.0 0.0 0.00 0.00 0.00 58 1020.1
20200530105101 15 0 0.0 0.0 0.00 0.00 0.00 58 1020.1
20200530104624 15 0 0.0 0.0 0.00 0.00 0.00 58 1020.1
20200530104056 15 0 0.0 0.0 0.00 0.00 0.00 58 1020.2
20200530103553 15 0 0.0 0.0 0.00 0.00 0.00 57 1020.2
20200530103142 16 0 0.0 0.0 0.00 0.00 0.00 56 1020.4
20200530102629 16 0 0.0 0.0 0.00 0.00 0.00 56 1020.4
20200530102055 16 0 0.0 1.6 0.00 0.00 0.00 57 1020.2
20200530101625 16 0 0.0 1.6 0.00 0.00 0.00 54 1020.2
20200530101056 16 0 0.0 0.0 0.00 0.00 0.00 53 1020.3
20200530100557 17 0 0.0 1.6 0.00 0.00 0.00 52 1020.2
20200530100207 17 0 0.0 1.6 0.00 0.00 0.00 52 1020.2
20200530095608 17 0 0.0 3.2 0.00 0.00 0.00 53 1020.2
20200530095053 17 0 0.0 3.2 0.00 0.00 0.00 53 1020.3
20200530094639 16 295 0.0 1.6 0.00 0.00 0.00 53 1020.3
20200530094053 17 0 0.0 3.2 0.00 0.00 0.00 53 1020.2
20200530093555 16 0 0.0 3.2 0.00 0.00 0.00 53 1020.3
20200530093148 17 0 0.0 3.2 0.00 0.00 0.00 53 1020.4
20200530092606 17 0 0.0 3.2 0.00 0.00 0.00 52 1020.3
20200530092053 17 0 0.0 0.0 0.00 0.00 0.00 53 1020.3
20200530091654 17 0 0.0 1.6 0.00 0.00 0.00 53 1020.4
20200530091052 17 0 0.0 1.6 0.00 0.00 0.00 53 1020.3
20200530090556 17 0 0.0 1.6 0.00 0.00 0.00 52 1020.5
20200530090325 17 0 0.0 0.0 0.00 0.00 0.00 51 1020.4
20200530085555 17 0 0.0 1.6 0.00 0.00 0.00 52 1020.4
20200530085058 17 0 0.0 1.6 0.00 0.00 0.00 52 1020.6
20200530084700 17 0 0.0 1.6 0.00 0.00 0.00 52 1020.7
20200530084058 17 0 0.0 0.0 0.00 0.00 0.00 52 1020.7
20200530083555 17 0 0.0 0.0 0.00 0.00 0.00 51 1020.8
20200530083232 18 0 0.0 0.0 0.00 0.00 0.00 50 1020.9
20200530082555 18 0 0.0 0.0 0.00 0.00 0.00 50 1020.9
20200530082056 18 0 0.0 0.0 0.00 0.00 0.00 50 1021.0
20200530081925 18 0 0.0 1.6 0.00 0.00 0.00 50 1021.2
20200530081057 18 0 0.0 1.6 0.00 0.00 0.00 49 1021.1
20200530080557 18 0 0.0 3.2 0.00 0.00 0.00 52 1021.2
20200530080149 17 0 0.0 3.2 0.00 0.00 0.00 51 1021.3
20200530075603 18 296 0.0 3.2 0.00 0.00 0.00 49 1021.3
20200530075102 19 0 0.0 0.0 0.00 0.00 0.00 47 1021.3
20200530074637 20 0 0.0 0.0 0.00 0.00 0.00 47 1021.4